Weather History for Starkville, MS

Change the Weather History Date:

Thursday, May 29, 2014

  Actual Average Record
Temperature  
Mean Temperature 72 °F -  
Max Temperature 77 °F 84 °F 91 °F (2012)
Min Temperature 66 °F 62 °F 60 °F (2013)
Cooling Degree Days 6    
Growing Degree Days 22 (Base 50)    
Moisture  
Dew Point 67 °F    
Average Humidity 85    
Maximum Humidity 94    
Minimum Humidity 74    
Precipitation  
Precipitation 0.15 in - - ()
Sea Level Pressure  
Sea Level Pressure 29.95 in    
Wind  
Wind Speed 7 mph (SE)    
Max Wind Speed 14 mph    
Max Gust Speed 18 mph    
Visibility 10 miles    
Events Rain    
Averages and records for this station are not official NWS values.
T = Trace of Precipitation, MM = Missing Value Source: NWS Daily Summary

Daily Weather History Graph

Daily Weather History Graph

Search for Another Location

Airport:

Trip Planner

Search our weather history database for the weather conditions in past years. The results will help you decide how hot, cold, wet, or windy it might be!

Date:

Astronomy

May. 29, 2014 Rise Set
Actual Time 5:47 AM CDT 7:58 PM CDT
Civil Twilight 5:19 AM CDT 8:26 PM CDT
Nautical Twilight 4:44 AM CDT 9:01 PM CDT
Astronomical Twilight 4:07 AM CDT 9:38 PM CDT
Moon 6:38 AM CDT (5/29) 8:51 PM CDT (5/29)
Length of Visible Light 15h 07m
Length of Day
14h 10m
New Moon, 1% of the Moon is Illuminated
May 29
New Moon
Jun 5
First Quarter
Jun 12
Full
Jun 19
Last Quarter
Jun 27
New

Hourly Weather History & Observations

Time (CDT) Temp. Dew Point Humidity Pressure Visibility Wind Dir Wind Speed Gust Speed Precip Events Conditions
12:15 AM 68.0 °F 64.4 °F 88% 29.93 in 10.0 mi SE 4.6 mph - N/A   Scattered Clouds
12:35 AM 68.0 °F 64.4 °F 88% 29.93 in 10.0 mi SE 4.6 mph - N/A   Clear
12:55 AM 68.0 °F 64.4 °F 88% 29.93 in 10.0 mi SE 5.8 mph - N/A   Clear
1:15 AM 68.0 °F 64.4 °F 88% 29.93 in 10.0 mi SE 6.9 mph - N/A   Clear
1:35 AM 68.0 °F 64.4 °F 88% 29.93 in 10.0 mi SE 4.6 mph - N/A   Scattered Clouds
1:55 AM 68.0 °F 64.4 °F 88% 29.94 in 10.0 mi SE 4.6 mph - N/A   Mostly Cloudy
2:15 AM 68.0 °F 64.4 °F 88% 29.93 in 10.0 mi SE 4.6 mph - N/A   Overcast
2:35 AM 68.0 °F 64.4 °F 88% 29.92 in 10.0 mi SE 8.1 mph - N/A   Overcast
3:15 AM 68.0 °F 64.4 °F 88% 29.92 in 10.0 mi SSE 8.1 mph - N/A   Overcast
3:35 AM 68.0 °F 64.4 °F 88% 29.92 in 10.0 mi SE 6.9 mph - N/A   Overcast
3:55 AM 68.0 °F 64.4 °F 88% 29.92 in 10.0 mi SE 8.1 mph - N/A   Overcast
4:15 AM 68.0 °F 64.4 °F 88% 29.92 in 10.0 mi SE 5.8 mph - N/A   Overcast
4:35 AM 68.0 °F 64.4 °F 88% 29.92 in 10.0 mi SE 6.9 mph - N/A   Overcast
4:55 AM 68.0 °F 64.4 °F 88% 29.92 in 10.0 mi SE 6.9 mph - N/A   Overcast
5:15 AM 68.0 °F 64.4 °F 88% 29.93 in 10.0 mi SE 6.9 mph - N/A   Overcast
5:35 AM 68.0 °F 64.4 °F 88% 29.93 in 10.0 mi SE 5.8 mph - N/A   Overcast
5:55 AM 68.0 °F 64.4 °F 88% 29.93 in 10.0 mi SE 8.1 mph - N/A   Overcast
6:15 AM 68.0 °F 64.4 °F 88% 29.94 in 10.0 mi SE 9.2 mph - N/A Rain Rain
6:35 AM 66.2 °F 64.4 °F 94% 29.94 in 10.0 mi SE 8.1 mph - N/A   Light Drizzle
6:55 AM 68.0 °F 64.4 °F 88% 29.94 in 10.0 mi SE 5.8 mph - N/A   Overcast
7:15 AM 68.0 °F 64.4 °F 88% 29.94 in 10.0 mi SE 5.8 mph - N/A   Mostly Cloudy
7:35 AM 68.0 °F 64.4 °F 88% 29.95 in 10.0 mi SE 5.8 mph - N/A Rain Light Rain
7:55 AM 68.0 °F 64.4 °F 88% 29.95 in 10.0 mi SE 6.9 mph - N/A Rain Light Rain
8:55 AM 69.8 °F 66.2 °F 88% 29.98 in 10.0 mi ESE 6.9 mph - N/A   Mostly Cloudy
9:15 AM 69.8 °F 66.2 °F 88% 29.98 in 10.0 mi ESE 6.9 mph - N/A   Mostly Cloudy
9:35 AM 69.8 °F 66.2 °F 88% 29.98 in 10.0 mi SE 11.5 mph - N/A   Overcast
9:55 AM 69.8 °F 66.2 °F 88% 29.99 in 10.0 mi SE 9.2 mph - N/A   Overcast
10:15 AM 71.6 °F 68.0 °F 88% 29.98 in 10.0 mi SE 9.2 mph 16.1 mph N/A   Mostly Cloudy
10:35 AM 73.4 °F 66.2 °F 78% 29.98 in 10.0 mi SE 13.8 mph 18.4 mph N/A   Overcast
10:55 AM 73.4 °F 66.2 °F 78% 29.99 in 10.0 mi SSE 9.2 mph - N/A   Overcast
11:15 AM 69.8 °F 66.2 °F 88% 29.99 in 3.0 mi SE 9.2 mph - 0.07 in Rain Heavy Rain
11:35 AM 68.0 °F 66.2 °F 94% 29.99 in 5.0 mi ESE 6.9 mph - 0.12 in Rain Light Rain
11:55 AM 69.8 °F 68.0 °F 94% 29.99 in 7.0 mi ESE 9.2 mph - 0.13 in Rain Rain
12:15 PM 69.8 °F 68.0 °F 94% 30.00 in 10.0 mi ESE 9.2 mph - 0.01 in   Overcast
12:35 PM 69.8 °F 68.0 °F 94% 29.99 in 10.0 mi ESE 4.6 mph - 0.02 in   Overcast
12:55 PM 71.6 °F 68.0 °F 88% 29.99 in 10.0 mi ESE 6.9 mph - 0.02 in   Overcast
1:15 PM 73.4 °F 69.8 °F 88% 29.97 in 10.0 mi ESE 6.9 mph - N/A   Mostly Cloudy
1:35 PM 73.4 °F 68.0 °F 83% 29.97 in 10.0 mi ESE 12.7 mph - N/A   Scattered Clouds
1:55 PM 73.4 °F 68.0 °F 83% 29.96 in 10.0 mi ESE 8.1 mph - N/A   Mostly Cloudy
2:15 PM 75.2 °F 68.0 °F 78% 29.95 in 10.0 mi ESE 6.9 mph - N/A   Mostly Cloudy
2:35 PM 77.0 °F 68.0 °F 74% 29.95 in 10.0 mi SE 10.4 mph - N/A   Mostly Cloudy
2:55 PM 77.0 °F 68.0 °F 74% 29.95 in 10.0 mi SE 9.2 mph - N/A   Mostly Cloudy
3:15 PM 77.0 °F 68.0 °F 74% 29.94 in 10.0 mi SE 9.2 mph - N/A   Mostly Cloudy
3:35 PM 77.0 °F 68.0 °F 74% 29.94 in 10.0 mi SE 11.5 mph 17.3 mph N/A   Scattered Clouds
4:15 PM 77.0 °F 68.0 °F 74% 29.93 in 10.0 mi ESE 8.1 mph 16.1 mph N/A   Mostly Cloudy
4:35 PM 77.0 °F 68.0 °F 74% 29.93 in 10.0 mi ESE 8.1 mph - N/A   Scattered Clouds
4:55 PM 77.0 °F 68.0 °F 74% 29.94 in 10.0 mi ESE 6.9 mph - N/A   Scattered Clouds
5:15 PM 75.2 °F 68.0 °F 78% 29.94 in 10.0 mi ESE 8.1 mph - N/A   Mostly Cloudy
5:35 PM 75.2 °F 68.0 °F 78% 29.94 in 10.0 mi ESE 4.6 mph - N/A   Overcast
5:55 PM 75.2 °F 68.0 °F 78% 29.93 in 10.0 mi East 8.1 mph - N/A   Scattered Clouds
6:15 PM 75.2 °F 68.0 °F 78% 29.93 in 10.0 mi ESE 8.1 mph - N/A   Clear
6:35 PM 75.2 °F 68.0 °F 78% 29.93 in 10.0 mi ESE 8.1 mph - N/A   Clear
6:55 PM 73.4 °F 68.0 °F 83% 29.93 in 10.0 mi ESE 6.9 mph - N/A   Clear
7:15 PM 73.4 °F 68.0 °F 83% 29.94 in 10.0 mi East 5.8 mph - N/A   Scattered Clouds
7:35 PM 73.4 °F 68.0 °F 83% 29.94 in 10.0 mi East 6.9 mph - N/A   Scattered Clouds
7:55 PM 73.4 °F 68.0 °F 83% 29.94 in 10.0 mi East 5.8 mph - N/A   Scattered Clouds
8:15 PM 71.6 °F 68.0 °F 88% 29.94 in 10.0 mi East 4.6 mph - N/A   Clear
8:35 PM 71.6 °F 68.0 °F 88% 29.94 in 10.0 mi East 6.9 mph - N/A   Clear
8:55 PM 71.6 °F 68.0 °F 88% 29.94 in 10.0 mi East 5.8 mph - N/A   Scattered Clouds
9:15 PM 71.6 °F 68.0 °F 88% 29.95 in 10.0 mi East 5.8 mph - N/A   Mostly Cloudy
9:35 PM 71.6 °F 68.0 °F 88% 29.96 in 10.0 mi East 5.8 mph - N/A   Scattered Clouds
9:55 PM 71.6 °F 68.0 °F 88% 29.97 in 10.0 mi ESE 4.6 mph - N/A   Mostly Cloudy
10:15 PM 71.6 °F 68.0 °F 88% 29.98 in 10.0 mi ESE 4.6 mph - N/A   Overcast
10:35 PM 71.6 °F 68.0 °F 88% 29.97 in 10.0 mi East 5.8 mph - N/A Rain Light Rain
10:55 PM 71.6 °F 68.0 °F 88% 29.98 in 10.0 mi ESE 4.6 mph - N/A   Overcast
11:15 PM 71.6 °F 68.0 °F 88% 29.98 in 10.0 mi ESE 6.9 mph - N/A   Overcast
11:35 PM 71.6 °F 68.0 °F 88% 29.98 in 10.0 mi SE 8.1 mph - N/A   Overcast
11:55 PM 71.6 °F 68.0 °F 88% 29.98 in 10.0 mi ESE 6.9 mph - N/A   Overcast